This is the latest recevied weather packets stored in our database for station/object KI6PPU. If no packets are shown the sender has not sent any weather packets the latest 10 day(s).
| Time | Temp. | Humidity | Pressure | Rain* | Wind** | Luminosity | Snow |
|---|---|---|---|---|---|---|---|
| 1777686405 | 24.44° C | 58% | 1014.1 hPa | 0 mm | - | 45 W/m² | - |
| 1777686101 | 24.44° C | 55% | 1014.1 hPa | 0 mm | - | 50 W/m² | - |
| 1777685797 | 25° C | 51% | 1014.3 hPa | 0 mm | - | 55 W/m² | - |
| 1777685493 | 25° C | 53% | 1014.3 hPa | 0 mm | - | 65 W/m² | - |
| 1777685190 | 25° C | 52% | 1014.3 hPa | 0 mm | - | 72 W/m² | - |
| 1777684889 | 25.56° C | 52% | 1014.3 hPa | 0 mm | - | 82 W/m² | - |
| 1777684585 | 25.56° C | 54% | 1014.3 hPa | 0 mm | - | 93 W/m² | - |
| 1777684280 | 25.56° C | 54% | 1014.3 hPa | 0 mm | - | 105 W/m² | - |
| 1777683978 | 25.56° C | 53% | 1014.4 hPa | 0 mm | - | 115 W/m² | - |
| 1777683675 | 25.56° C | 50% | 1014.4 hPa | 0 mm | - | 122 W/m² | - |
| 1777683373 | 25.56° C | 51% | 1014.5 hPa | 0 mm | - | 125 W/m² | - |
| 1777683070 | 26.11° C | 53% | 1014.5 hPa | 0 mm | - | 127 W/m² | - |
| 1777682765 | 26.11° C | 51% | 1014.5 hPa | 0 mm | - | 164 W/m² | - |
| 1777682463 | 26.11° C | 50% | 1014.6 hPa | 0 mm | - | 160 W/m² | - |
| 1777682161 | 26.11° C | 48% | 1014.5 hPa | 0 mm | - | 176 W/m² | - |
| 1777681857 | 26.11° C | 48% | 1014.6 hPa | 0 mm | - | 188 W/m² | - |
| 1777681553 | 26.67° C | 49% | 1014.7 hPa | 0 mm | - | 215 W/m² | - |
| 1777681251 | 26.67° C | 48% | 1014.5 hPa | 0 mm | - | 231 W/m² | - |
| 1777680949 | 26.67° C | 47% | 1014.5 hPa | 0 mm | - | 257 W/m² | - |
| 1777680645 | 26.67° C | 51% | 1014.6 hPa | 0 mm | - | 214 W/m² | - |
| 1777680344 | 27.22° C | 50% | 1014.7 hPa | 0 mm | - | 269 W/m² | - |
| 1777680041 | 26.67° C | 52% | 1014.6 hPa | 0 mm | - | 318 W/m² | - |
| 1777679736 | 26.67° C | 52% | 1014.5 hPa | 0 mm | - | 296 W/m² | - |
| 1777679432 | 26.67° C | 52% | 1014.8 hPa | 0 mm | - | 252 W/m² | - |
| 1777679128 | 27.22° C | 50% | 1014.8 hPa | 0 mm | - | 400 W/m² | - |
* Rain latest hour (hover to see other rain measurements)
** Current wind speed in m/s (hover to see current wind gust speed)